Location: Unspecified
(0.0000°N, 0.0000°E)
Time: 17:39:08
(UTC+00:00)

Vanguard 2 Rocket - Pass Details

Date: 11 December 2017
Orbit: 554 x 3327 km, 32.9° (Epoch: 18 July)

Event Time Altitude Azimuth Distance (km) Brightness Sun altitude
Rises 04:27:45 0° 303° (WNW) 6,982 - -19.6°
Reaches altitude 10° 04:32:55 10° 302° (WNW) 5,677 - -18.4°
Exits shadow 04:37:19 21° 300° (WNW) 4,511 9.8 -17.4°
Maximum altitude 04:48:51 77° 218° (SW) 1,956 8.5 -14.8°
Drops below altitude 10° 04:57:40 10° 131° (SE) 3,322 11.0 -12.8°
Sets 04:59:55 0° 130° (SE) 4,025 11.8 -12.2°
